Location: Asheville, NC
(35.6000°N, 82.5500°W)
Time: 16:40:36
(UTC-05:00)

KKS-1 - Pass Details

Date: 13 February 2018
Orbit: 638 x 650 km, 98.3° (Epoch: 17 February)

Event Time Altitude Azimuth Distance (km) Brightness Sun altitude
Rises 06:20:32 0° 206° (SSW) 2,925 ? -12.5°
Reaches altitude 10° 06:23:30 10° 227° (SW) 2,023 ? -11.9°
Maximum altitude 06:26:13 16° 266° (W) 1,660 ? -11.3°
Enters shadow 06:27:04 15° 280° (W) 1,700 ? -11.2°
